Kezdőlap
METAR-TAF:

METAR-TAF

Repülőterek :

Forest City, Iowa, Amerikai Egyesült Államok

földrajzi szélesség: 43-14-05N, földrajzi hosszúság: 093-37-27W, magasság: 375 m

Jelenlegi meteorológiai megfigyelések

A jelentés 17 perccel ezelõtt készült, 09:35 UTC
Dél-délkeleti szél 3 kt
Hőmérséklet 17°C
Páratartalom 88%
Légköri nyomás 1020 hPa
Látótávolság: 16.1 km
Szórványos felhőzet 4600 lábon
Borult 6000 lábon

METAR: KFXY 200935Z AUTO 15003KT 10SM SCT046 OVC060 17/15 A3011 RMK AO2

Idő: 04:52 (09:52 UTC)


TAF: hiányzik

Meteorológiai megfigyelések és előrejelzések több, mint 4000 repülőtéren (METAR és TAF jelentéseket).

A térképen piros és sárga pontok jelzik az elérhető meteorológiai állomásokat.

Mozgassa az egeret a pont fölött, hogy megjelenjen az állomás neve.

Azután kattintson az időjárási megfigyelések és előrejelzések megtekintéséhez.

A térkép megváltoztatása: kattintson a fekete keresztel jelölt zöld gombra ráközelítéshez, a vonallal jelölt zöld gombra távolításhoz, vagy a zöld nyilakra a szomszédos térképek eléréséhez.


METAR-TAF: